Theta_e
305 306 306 306 307 307 307 306 306 309 310 311 311 312 309 307 306 302 300 302 297 291 292 295 294 290 292 292 287 291 289 291 290 286 286 286 285 287 285 288 288 285 284 282 284 281 276 293 292 286 289 291 292 293
304 305 305 305 305 305 305 305 305 306 308 310 311 311 311 308 306 305 297 302 301 294 293 296 296 296 295 295 293 292 289 289 292 289 288 286 284 285 284 279 291 283 287 282 286 281 289 291 291 293 292 292 292 294
304 304 304 303 303 304 304 305 305 306 307 309 310 311 311 309 307 305 299 299 298 293 292 292 290 295 297 297 299 290 291 294 294 295 290 287 283 286 279 283 285 288 291 286 285 288 289 291 292 293 294 292 296 297
304 304 304 304 304 304 304 305 306 307 308 309 310 310 310 310 308 305 299 300 297 293 286 287 295 293 298 298 297 297 296 297 297 296 291 287 283 289 284 286 284 287 289 285 285 287 289 291 293 293 294 296 297 298
302 303 303 303 304 305 305 306 307 307 307 309 310 310 311 310 308 304 301 300 300 293 287 288 292 293 294 295 298 297 295 294 291 290 288 285 287 287 287 286 284 289 289 284 280 287 286 289 292 294 293 294 296 296
303 303 303 303 304 304 305 306 307 307 307 309 311 311 311 309 305 299 293 299 301 299 289 284 288 289 292 295 295 296 296 294 294 291 290 290 291 288 282 281 289 293 294 293 290 289 291 293 294 295 295 295 297 297
302 302 303 303 304 305 306 307 307 307 308 309 310 310 309 305 300 294 292 297 301 299 289 284 284 290 297 296 296 296 297 295 293 292 289 288 288 292 289 284 288 290 289 289 291 293 291 293 292 294 295 297 299 298
302 302 302 302 302 304 305 306 307 308 308 309 309 308 306 303 301 296 299 302 300 294 291 284 283 288 297 292 291 296 292 293 293 292 290 288 288 286 283 286 291 289 289 290 293 294 294 294 294 295 298 296 295 295
303 303 303 303 303 304 305 306 306 307 308 308 306 304 300 297 293 295 303 303 300 294 286 285 282 281 297 295 295 295 295 288 294 289 289 290 287 286 286 290 290 291 291 291 293 294 294 294 294 295 295 294 293 293
303 304 303 303 304 305 305 306 306 308 306 303 299 294 290 294 302 302 296 291 290 291 288 284 288 284 291 290 292 292 293 289 286 289 292 287 287 292 293 292 292 293 294 293 291 290 292 292 293 293 293 293 294 293
304 304 303 303 303 305 306 306 307 305 302 296 292 291 297 302 296 292 287 285 286 282 286 285 287 285 294 286 287 293 288 290 285 287 287 286 287 290 293 293 294 294 294 294 294 295 294 293 293 292 292 293 293 293
304 303 304 303 303 305 306 306 304 300 297 296 295 298 296 292 289 285 284 286 284 279 285 285 287 288 290 293 288 291 288 289 282 290 287 284 288 291 292 292 293 294 294 294 295 294 293 293 293 293 292 292 293 293
303 303 303 303 303 304 305 306 303 302 300 298 293 289 288 287 282 280 279 283 284 286 289 290 288 289 289 291 289 288 285 282 291 286 284 287 290 292 293 293 293 294 295 294 292 292 293 294 294 293 292 293 293 292
303 303 303 302 303 304 305 305 302 301 296 289 287 281 283 282 282 284 284 286 290 293 293 293 291 287 289 287 288 285 289 290 284 283 282 287 290 292 294 294 293 293 293 291 291 291 292 293 292 292 292 292 292 291
302 303 302 302 303 304 306 303 302 299 294 288 288 282 282 285 289 290 291 291 294 296 294 293 291 290 287 286 288 287 285 285 281 283 285 286 290 292 291 292 292 292 290 290 290 290 291 292 291 291 292 292 292 292
302 302 300 302 303 305 304 302 298 297 293 291 288 286 286 288 289 289 291 292 296 294 296 294 289 287 285 283 283 283 280 276 278 281 286 287 290 287 287 289 292 293 290 289 288 291 292 292 291 290 292 291 292 292
302 297 303 303 303 304 301 295 294 291 288 287 286 290 286 289 291 292 294 294 298 295 290 291 287 284 286 280 279 280 277 280 284 285 286 287 286 287 288 290 293 293 290 289 288 289 290 291 291 291 289 290 291 291
298 301 304 304 301 298 295 294 291 288 286 288 285 286 287 290 290 293 296 297 296 294 292 289 292 287 279 280 277 280 285 287 286 286 286 287 288 288 289 288 292 290 289 288 288 288 289 289 289 289 289 289 291 289
301 302 304 301 298 293 289 290 292 285 286 288 287 287 290 290 293 294 296 297 297 296 294 291 288 286 285 286 285 285 286 287 286 286 287 288 289 289 291 291 290 288 287 286 286 286 287 289 289 290 289 289 288 288
303 303 301 300 299 292 288 289 293 287 284 286 287 287 287 289 292 294 295 295 294 293 289 287 286 289 290 291 290 289 289 290 287 286 286 288 289 288 289 288 287 286 285 286 285 287 286 288 290 290 289 288 288 286
299 299 300 299 296 295 290 286 287 288 287 286 288 287 287 290 289 290 293 296 292 290 286 289 290 291 292 291 290 290 290 290 288 288 287 284 285 285 286 286 286 285 284 284 283 284 286 286 287 289 288 288 288 288
297 299 295 297 292 293 291 291 288 289 287 289 292 291 289 288 289 291 295 292 292 291 290 290 290 290 290 290 290 290 289 288 287 287 288 287 284 284 284 284 285 283 283 283 283 283 284 285 287 288 288 288 289 288
298 296 293 293 289 288 288 293 288 289 286 289 291 288 289 290 292 295 290 291 291 291 290 290 290 290 290 291 291 290 290 290 288 287 286 285 284 284 284 284 284 283 282 283 284 284 284 285 287 288 288 288 289 288
298 292 289 288 288 285 291 289 288 289 287 286 289 286 289 291 294 291 288 288 290 289 289 289 290 287 288 288 288 288 289 288 287 287 287 286 283 282 283 283 283 283 283 283 284 284 285 285 287 287 287 288 288 286
286 287 287 284 288 287 285 286 287 287 285 287 288 287 290 292 287 287 286 287 288 288 287 288 287 288 286 286 287 288 288 287 287 286 285 286 284 282 282 282 282 282 283 284 284 284 284 285 285 285 286 287 285 285
280 286 285 285 286 287 285 285 285 286 287 287 288 291 292 289 286 284 287 288 287 288 289 289 287 285 285 287 286 285 285 286 288 285 284 284 284 283 281 280 280 281 283 283 284 284 284 284 284 284 283 284 284 285
281 284 287 292 291 290 289 290 290 288 287 287 289 289 288 283 284 287 291 292 289 290 292 292 290 289 287 285 286 286 285 287 287 286 285 285 284 284 283 281 281 281 284 285 285 284 283 282 282 282 282 282 284 284
287 289 286 287 290 291 287 288 288 287 288 292 292 288 286 285 286 288 291 293 291 292 291 290 291 291 289 286 288 287 287 287 287 286 286 285 284 285 285 284 284 284 285 285 285 284 283 282 281 281 281 280 281 284
286 290 291 287 288 288 288 288 289 292 294 292 288 286 287 286 286 285 286 287 288 288 289 288 287 288 288 287 286 286 287 287 284 281 280 279 280 281 283 284 284 284 284 283 282 282 282 281 280 280 280 280 281 283
287 289 287 289 287 287 290 292 291 292 292 292 291 288 288 287 286 287 286 286 286 286 287 289 288 287 285 285 282 282 282 284 284 284 281 279 280 282 283 283 283 282 282 281 280 279 279 280 279 279 280 279 279 280
291 288 287 287 288 291 293 293 292 292 291 289 290 287 286 286 287 287 285 285 286 287 287 286 285 285 285 284 282 281 279 280 282 283 282 281 280 281 282 282 282 281 280 280 279 278 277 277 277 277 277 278 278 277
287 286 285 285 287 292 294 291 290 288 286 284 283 286 287 282 279 282 284 285 284 283 283 285 284 282 283 282 282 281 280 279 280 281 280 280 279 281 282 282 282 281 279 278 278 277 276 276 276 276 275 275 275 275
287 288 288 287 285 287 287 286 286 283 282 281 280 282 281 280 276 281 285 286 284 281 280 281 282 282 281 280 279 278 278 278 278 278 278 278 278 279 281 281 280 279 278 277 276 276 275 275 274 274 274 274 274 274
Wind_Speed
13 13 14 14 13 12 11 11 14 13 12 12 12 10 16 16 12 6 1 5 3 3 4 8 7 4 4 3 2 3 5 2 3 2 2 1 2 2 3 3 2 3 3 3 1 3 7 1 3 3 4 4 6 9
14 13 13 13 14 14 14 15 14 15 14 13 13 12 16 18 15 11 3 2 3 3 5 2 8 14 15 14 4 4 2 3 4 2 1 2 2 3 0 3 2 2 5 4 7 6 3 4 7 7 1 7 10 11
15 14 12 13 13 14 15 16 17 15 14 14 14 13 12 18 18 13 2 3 2 2 5 5 9 8 8 16 16 4 2 5 0 3 2 2 3 2 1 4 2 3 2 3 3 1 3 6 4 3 5 8 13 15
14 13 13 13 13 13 14 15 16 15 14 14 13 14 14 18 18 14 3 3 1 1 4 7 3 7 2 3 11 17 7 3 3 2 2 2 2 3 3 3 3 5 0 1 5 5 8 2 5 9 13 15 16 16
14 13 14 15 14 14 14 15 14 14 14 15 14 13 13 16 16 5 2 3 3 2 4 7 12 11 8 10 13 14 12 9 3 3 2 3 3 0 1 1 4 3 3 3 5 2 4 10 10 14 16 16 17 20
13 13 14 16 16 15 15 15 14 13 14 16 14 12 10 14 14 3 2 2 5 3 2 4 4 6 7 3 10 13 8 6 3 3 2 3 4 1 2 3 1 3 2 2 4 6 11 15 15 13 15 21 20 21
14 15 15 16 15 14 14 14 15 13 13 13 10 8 15 20 5 3 3 3 7 3 1 4 5 5 5 3 3 4 6 3 3 2 3 2 3 2 2 4 1 2 4 6 5 7 10 11 14 18 17 20 18 18
15 15 16 15 16 15 15 15 13 12 11 9 7 11 20 16 9 1 1 11 5 2 2 3 5 3 1 2 2 3 3 2 2 2 1 2 2 2 4 6 2 1 6 3 9 9 12 15 14 17 15 16 19 18
15 15 14 14 14 15 15 13 13 11 7 5 21 20 6 2 2 2 10 11 1 2 3 3 3 3 3 2 2 1 3 3 2 3 3 3 3 5 5 1 2 3 4 8 10 12 12 13 16 16 17 18 18 19
16 16 14 14 14 14 14 12 10 7 25 21 4 3 2 2 7 8 3 1 2 1 2 4 2 4 1 2 2 2 3 3 3 4 1 3 4 1 3 3 1 2 5 8 10 11 15 15 16 18 18 16 17 19
16 15 14 13 15 14 13 10 7 24 7 2 3 2 2 8 2 1 2 3 3 3 4 4 6 6 1 3 2 3 2 3 2 2 3 3 2 3 4 2 1 4 5 7 8 11 12 13 14 16 17 18 16 21
15 13 13 12 14 14 12 8 25 7 3 6 7 4 2 2 2 3 4 3 5 5 4 4 4 4 2 1 2 3 2 2 4 5 3 3 2 4 2 3 4 4 6 8 9 11 13 14 14 14 14 15 17 20
14 13 12 11 14 14 11 15 17 24 13 3 3 3 3 3 5 6 6 4 4 4 4 4 3 3 3 4 4 3 3 3 5 3 3 1 4 2 1 2 4 5 6 9 6 9 12 13 13 13 14 14 18 19
14 13 12 12 13 12 11 20 26 12 4 3 4 6 5 5 6 6 4 3 4 3 1 4 2 3 4 4 3 2 0 3 3 2 2 1 3 3 1 1 3 6 8 7 7 10 12 13 13 14 12 13 16 18
15 14 13 12 12 12 12 26 16 2 3 3 3 5 8 4 3 3 4 1 1 1 0 3 1 1 2 2 1 2 1 2 3 1 2 3 3 2 2 3 5 6 6 5 7 9 11 12 12 14 14 13 15 16
14 12 9 15 13 11 24 16 3 2 1 3 5 3 4 3 4 4 5 6 3 5 2 1 1 2 4 2 2 4 2 4 4 3 2 4 2 0 2 3 5 4 4 5 6 9 10 11 12 13 14 13 15 17
12 3 9 13 15 18 21 5 2 2 3 4 4 4 2 3 3 3 4 3 3 3 1 1 2 3 1 2 2 3 5 4 3 2 2 4 4 3 3 4 4 3 4 5 6 9 10 10 10 12 15 16 15 16
4 5 9 13 17 11 3 2 3 4 5 3 3 3 3 3 3 2 2 1 1 2 2 3 4 2 3 3 3 4 2 1 1 3 3 3 1 3 3 2 4 2 4 5 5 7 9 10 9 9 12 14 14 15
5 5 19 24 10 6 3 2 2 4 5 2 3 3 3 3 3 3 3 3 3 2 3 2 3 3 4 4 4 3 3 3 3 3 2 2 2 1 4 3 4 4 6 6 6 4 6 8 6 7 7 8 10 13
11 19 22 14 5 3 4 3 2 3 3 4 3 2 3 3 2 2 4 3 3 2 3 4 4 3 4 3 4 4 4 4 4 3 2 3 2 5 5 3 3 3 4 6 6 6 5 8 7 8 7 7 8 13
11 10 10 5 2 2 2 3 3 3 3 3 2 3 3 1 3 4 3 3 2 3 3 3 3 1 1 2 3 3 4 5 4 4 4 4 2 4 5 3 3 4 4 4 5 6 6 6 6 6 7 7 7 8
4 8 3 2 1 1 1 3 2 2 2 2 1 3 2 2 3 3 3 3 3 4 3 4 3 3 4 3 3 3 6 7 6 6 8 8 4 4 4 2 4 4 4 3 3 4 4 5 6 6 6 7 8 6
9 4 2 2 2 2 2 1 2 2 2 1 3 2 2 2 3 5 3 3 4 3 3 3 3 3 7 4 5 5 4 7 5 5 5 5 4 4 4 4 4 4 4 4 3 4 4 5 7 7 7 8 8 9
5 3 3 4 3 3 2 3 2 2 2 2 2 2 3 2 5 2 2 3 2 2 3 6 7 4 4 5 3 2 2 4 6 6 5 8 6 4 4 4 3 3 2 1 4 4 4 5 6 7 8 9 9 10
4 4 4 4 3 4 4 3 4 3 3 4 3 3 2 2 2 3 3 2 2 3 4 5 4 5 5 2 1 2 2 5 8 7 2 6 7 4 4 4 4 3 3 5 5 5 5 5 6 7 8 9 10 9
3 5 5 4 3 3 4 4 4 5 3 3 4 2 0 2 2 2 2 3 4 4 6 8 6 4 2 2 4 3 4 2 7 7 3 4 5 7 5 4 3 4 4 3 4 5 6 6 7 9 9 10 13 10
3 3 3 3 2 2 2 2 1 2 4 3 3 3 2 3 2 1 2 3 2 3 4 6 5 6 5 3 3 4 4 3 6 5 5 4 4 4 5 5 5 1 2 5 6 6 6 6 6 6 6 7 9 9
2 1 3 4 2 0 1 1 3 4 2 1 2 4 4 1 2 3 3 4 5 1 5 3 4 5 5 5 7 8 7 8 10 9 7 6 4 4 5 5 5 8 6 5 6 5 6 6 6 6 7 6 6 7
1 1 2 3 2 2 3 2 2 1 1 1 1 2 3 3 4 4 4 8 6 0 7 7 4 7 8 7 6 5 8 10 13 11 10 5 4 3 3 5 5 6 5 7 8 7 9 7 7 6 6 5 4 5
1 3 1 2 2 2 1 1 1 3 3 3 4 3 3 2 3 6 7 7 7 4 2 6 9 9 10 10 7 6 5 3 4 9 8 6 5 3 3 6 6 5 5 6 5 5 7 6 6 7 7 7 6 6
0 1 1 1 1 1 2 4 4 4 4 5 5 3 3 3 1 7 10 9 8 4 5 7 7 5 7 7 6 8 5 5 7 10 8 6 5 5 6 6 5 5 5 6 6 6 5 6 6 6 8 9 9 7
0 0 1 1 2 2 3 3 3 3 4 4 4 4 3 4 5 8 10 10 9 9 8 5 8 6 6 6 8 8 9 7 8 8 9 6 6 6 6 6 6 6 7 7 7 6 7 6 5 6 5 7 7 7
2 2 2 1 1 1 3 1 3 3 3 3 4 4 4 3 4 3 5 7 8 6 6 6 6 8 11 11 10 8 9 8 11 12 12 11 10 8 6 5 6 7 8 7 6 6 7 7 5 7 7 7 7 8
Wind_Direction
280 280 279 274 280 281 284 291 297 296 275 267 261 245 203 200 202 186 231 186 189 229 255 243 261 225 255 236 244 350 314 139 278 243 251 327 302 356 321 241 236 194 186 212 245 247 272 136 357 161 222 298 291 290
278 278 278 278 281 284 287 295 296 291 288 265 260 243 206 201 199 188 245 185 196 226 266 234 233 230 235 246 252 205 244 307 273 285 301 325 334 334 28 284 21 189 193 196 205 224 227 202 213 250 238 265 279 276
273 274 274 277 280 284 285 288 290 286 277 274 256 239 230 201 195 187 182 156 176 265 277 252 247 256 225 231 220 224 215 215 219 347 331 282 270 120 255 250 304 302 149 223 22 289 267 279 289 196 258 264 288 286
271 270 271 274 277 278 279 280 281 282 279 277 258 234 228 204 193 187 175 164 147 279 274 280 326 281 207 197 197 211 247 300 299 248 216 267 239 175 243 257 207 219 336 241 268 300 317 347 236 318 306 306 297 291
273 274 276 279 279 276 275 278 278 276 279 281 262 238 227 200 181 170 143 192 177 198 286 288 303 281 261 225 187 199 229 247 256 243 217 237 251 328 234 317 249 191 191 172 243 253 235 279 300 303 301 299 304 302
271 272 275 282 285 279 276 275 276 272 272 270 256 241 213 165 132 114 277 182 195 170 293 297 287 291 309 149 187 174 216 224 209 199 237 265 262 242 269 255 258 107 87 57 284 303 285 285 293 295 304 303 299 300
271 273 274 277 279 283 284 281 278 271 271 265 254 247 162 142 128 161 194 150 146 113 239 288 283 266 247 191 154 168 203 204 198 200 230 227 280 114 260 250 208 41 325 291 274 295 297 309 305 303 299 304 310 306
265 269 276 278 279 281 282 283 281 276 268 247 239 159 130 117 101 120 180 138 136 130 231 267 271 294 289 236 180 172 157 163 188 190 241 235 299 178 250 251 152 0 319 295 330 310 287 292 299 303 312 314 311 316
261 262 264 272 277 280 281 279 275 268 250 167 115 101 85 83 170 210 178 172 108 194 240 228 256 275 347 283 148 88 133 193 162 213 228 149 229 225 234 271 25 325 321 309 309 299 300 307 307 317 317 321 319 314
259 260 265 277 277 279 280 271 258 256 128 121 81 100 163 196 135 122 105 114 187 214 236 246 251 262 65 25 228 213 169 216 208 216 209 211 248 133 123 118 178 339 334 325 320 322 319 320 328 323 325 319 317 321
255 256 258 272 279 282 282 258 198 129 107 78 100 91 86 154 116 162 179 212 190 242 218 235 225 231 260 187 261 255 205 197 233 155 203 221 249 122 106 61 0 9 324 305 296 297 313 320 324 319 320 321 322 319
253 259 255 269 278 281 278 229 153 130 147 137 104 93 105 186 169 221 202 188 211 237 202 211 218 199 228 250 221 230 250 184 247 139 212 246 97 108 112 48 360 328 307 309 310 318 324 331 320 322 322 321 321 320
252 257 252 263 274 278 269 187 151 122 115 84 88 126 166 152 202 215 204 192 212 202 214 196 191 158 200 215 231 230 239 216 130 206 236 59 133 146 141 66 325 309 308 320 323 328 324 335 333 332 327 327 322 329
251 248 252 263 266 272 265 154 145 134 101 118 157 158 207 185 228 204 211 192 212 190 53 326 139 181 192 171 224 184 227 157 241 231 237 157 163 180 111 30 289 309 307 332 340 325 321 336 332 329 337 330 325 333
244 246 246 257 255 259 187 155 146 77 114 157 182 216 219 236 248 218 222 214 17 184 207 276 254 218 237 221 206 93 277 249 206 215 190 179 167 179 11 327 336 331 355 350 332 324 328 334 334 328 335 336 330 335
244 244 238 239 236 230 158 130 71 79 79 198 216 238 242 226 215 223 237 238 195 209 167 210 225 268 247 152 121 221 131 232 247 219 216 147 151 256 285 311 303 316 14 342 324 330 333 339 334 328 332 342 343 347
212 229 212 206 196 156 133 89 95 167 199 213 230 229 229 300 258 233 229 195 179 170 186 232 191 218 4 52 281 182 199 218 196 201 163 153 178 239 297 308 316 28 -0 340 331 341 341 339 335 344 347 345 345 356
216 209 206 158 120 94 45 76 137 185 222 217 230 216 189 210 221 243 21 223 251 192 173 223 148 204 212 204 260 235 208 199 136 154 185 208 228 13 323 338 119 22 342 333 341 330 345 351 347 351 340 341 345 1
186 183 152 142 114 103 125 167 215 212 219 213 231 253 249 229 212 220 171 255 257 253 287 237 154 191 226 212 197 181 174 163 166 182 206 255 85 112 98 113 77 25 4 347 346 343 343 338 341 346 345 346 354 356
187 153 137 123 72 105 126 153 218 215 212 218 215 209 190 207 201 187 164 224 242 143 214 228 214 214 194 213 181 163 170 149 125 105 66 7 26 95 139 98 66 18 17 7 4 2 357 360 2 353 351 356 357 3
88 118 100 66 81 134 151 154 193 224 226 211 223 158 231 196 201 183 198 210 172 202 237 209 205 186 158 118 138 127 142 141 167 156 146 117 58 101 106 79 66 46 48 13 10 352 13 5 347 347 350 358 358 7
92 86 95 32 86 207 207 205 195 211 151 252 239 188 223 225 192 167 142 198 202 233 201 168 175 144 114 113 94 116 124 105 99 95 93 114 117 96 90 94 71 50 33 10 11 8 358 346 356 354 2 352 350 6
94 57 83 139 190 186 219 137 181 218 228 215 147 215 221 220 190 130 195 217 233 212 172 137 134 111 121 125 104 90 101 114 108 119 113 100 92 89 86 64 66 76 39 356 0 26 22 351 4 7 4 6 3 16
142 112 155 177 182 188 186 196 208 235 210 232 206 221 225 193 153 193 216 225 239 105 110 126 128 95 54 70 91 115 114 102 107 93 112 116 99 69 84 82 63 61 58 338 18 21 27 24 15 24 20 18 12 23
116 175 161 187 189 199 195 187 179 218 231 194 211 224 226 157 155 194 231 214 149 124 129 132 128 138 134 140 118 104 84 124 130 125 85 119 118 94 67 58 52 29 1 57 30 28 21 24 25 24 29 27 14 22
133 194 189 194 159 222 181 186 199 208 192 205 223 146 271 149 173 223 266 193 182 157 164 162 152 128 111 126 134 129 154 152 111 110 132 148 132 129 127 107 68 5 5 62 72 53 40 28 30 30 23 15 22 25
159 182 197 224 192 201 208 230 210 215 194 223 193 141 166 142 147 322 333 8 238 184 148 159 148 140 147 155 94 91 101 85 103 125 116 114 108 118 126 129 112 231 12 63 62 61 61 47 37 27 21 20 20 19
245 211 201 181 219 177 194 219 209 201 221 214 190 171 153 45 77 328 324 352 352 329 117 108 113 132 129 125 125 115 102 102 93 92 85 57 52 79 99 86 84 79 71 60 65 54 55 57 52 39 32 23 13 14
238 211 193 163 185 220 225 222 264 194 351 336 87 77 83 59 353 328 317 328 305 155 108 105 84 102 92 79 68 75 128 134 131 123 117 116 91 14 29 112 97 87 88 81 57 59 59 57 50 41 30 18 360 13
262 151 151 200 211 210 284 53 52 23 39 73 97 90 83 87 33 9 357 356 6 348 117 137 141 136 137 133 117 64 23 41 121 140 149 153 162 160 110 96 97 87 80 80 72 53 36 43 33 31 33 30 23 15
291 113 178 232 315 81 90 91 72 59 41 42 48 66 111 133 75 27 13 355 342 27 84 94 81 76 111 118 124 116 86 9 87 92 94 97 98 99 102 100 96 91 85 83 76 67 60 48 38 31 30 30 22 18
339 143 65 62 356 85 60 45 57 59 34 38 26 10 58 54 42 2 359 359 14 27 19 52 95 75 67 75 76 68 81 101 94 93 92 92 80 75 90 89 87 87 86 82 77 73 66 61 45 33 19 13 9 4
39 48 75 103 2 66 27 71 90 77 43 63 45 22 42 57 64 2 338 7 15 20 25 38 67 82 86 84 89 84 74 77 79 79 76 74 78 80 82 85 90 90 89 84 76 72 68 64 54 42 23 11 3 6